This is the latest recevied weather packets stored in our database for station/object F5PIJ-10. If no packets are shown the sender has not sent any weather packets the latest 10 day(s).
| Time | Temp. | Humidity | Pressure | Rain* | Wind** | Luminosity | Snow |
|---|---|---|---|---|---|---|---|
| 1778001813 | 19.44° C | 54% | 1013.7 hPa | - | - | - | - |
| 1778000913 | 19.44° C | 54% | 1013.7 hPa | - | - | - | - |
| 1778000013 | 19.44° C | 54% | 1013.7 hPa | - | - | - | - |
| 1777999112 | 19.44° C | 53% | 1013.6 hPa | - | - | - | - |
| 1777998212 | 19.44° C | 55% | 1013.7 hPa | - | - | - | - |
| 1777997312 | 20° C | 55% | 1013.7 hPa | - | - | - | - |
| 1777996412 | 19.44° C | 55% | 1013.8 hPa | - | - | - | - |
| 1777995512 | 19.44° C | 55% | 1013.7 hPa | - | - | - | - |
| 1777994612 | 19.44° C | 56% | 1013.6 hPa | - | - | - | - |
| 1777993711 | 19.44° C | 56% | 1013.7 hPa | - | - | - | - |
| 1777992811 | 19.44° C | 57% | 1013.7 hPa | - | - | - | - |
| 1777991911 | 19.44° C | 57% | 1013.7 hPa | - | - | - | - |
| 1777991011 | 19.44° C | 57% | 1013.7 hPa | - | - | - | - |
| 1777989213 | 18.89° C | 57% | 1014 hPa | - | - | - | - |
| 1777988313 | 18.89° C | 58% | 1014 hPa | - | - | - | - |
| 1777987413 | 18.89° C | 57% | 1014.1 hPa | - | - | - | - |
| 1777986845 | 18.89° C | 58% | 1014 hPa | - | - | - | - |
| 1777986513 | 18.89° C | 58% | 1014 hPa | - | - | - | - |
| 1777985613 | 18.89° C | 57% | 1014.1 hPa | - | - | - | - |
| 1777984713 | 18.89° C | 57% | 1014.1 hPa | - | - | - | - |
| 1777983812 | 18.33° C | 57% | 1014.3 hPa | - | - | - | - |
| 1777982912 | 18.33° C | 57% | 1014.3 hPa | - | - | - | - |
| 1777982012 | 18.33° C | 57% | 1014.3 hPa | - | - | - | - |
| 1777981112 | 18.89° C | 56% | 1014.3 hPa | - | - | - | - |
| 1777980212 | 18.33° C | 57% | 1014.2 hPa | - | - | - | - |
* Rain since midnight (hover to see other rain measurements)
** Current wind speed in m/s (hover to see current wind gust speed)